Find Starlink 5469

NORAD ID: 55649 Int'l Des: 2023-021 Owner: SPXS Country: US Constellation: starlink operational
LEOCIRCULAR

リアルタイム位置

3D地球を読み込み中...

Starlink 5469について

説明を読み込み中...

次回通過

Passes for default location (London). Set your location on the main map for personalized predictions.

高度履歴

Loading altitude history...

軌道要素

1 55649U 23021X 26104.13927263 .00001374 00000-0 12292-3 0 9997
2 55649 69.9985 94.9865 0003417 269.0447 91.0321 14.98330262174102
Epoch: Apr 14, 2026 • Age: 8 hours

現在のステータス

高度 585.1 km
速度 7.57 km/s
衛星直下点 65.77°N, 159.38°W
打ち上げ日 Feb 17, 2023
運用期間 3.1 years
タイプ internet

技術仕様

分類 Payload
質量 305.00 kg
乾燥質量 290.00 kg
総質量 305.00 kg
長さ 0.20 m
直径 2.80 m
スパン 9.00 m
形状 Box + pan
製造者 SPXS
バスタイプ Starlink
フェーズステータス In Orbit
所有者/国 SPXS/US

Most Searched